Regional Weather Roundup
Issued by NWS

Home | Current Version | Previous Version | Graphics & Text | Print | Product List | Glossary Off
Versions: 1 2 3 4 5 6 7 8 9 10 11 12 13 14 15 16 17 18 19 20 21 22 23 24 25 26 27 28 29 30 31 32 33 34 35 36 37 38 39 40 41 42 43 44 45 46 47 48 49 50

000
ASUS43 KTOP 140959
RWRKS

WEATHER ROUNDUP FOR KANSAS
NATIONAL WEATHER SERVICE GOODLAND KS
500 AM CDT MON JUL 14 2014

NOTE:  "FAIR" INDICATES FEW OR NO CLOUDS BELOW 12,000 FEET WITH NO
SIGNIFICANT WEATHER AND/OR OBSTRUCTIONS TO VISIBILITY.

KSZ001>006-013>018-027>032-041>047-141100-
NORTHWEST KANSAS

CITY           SKY/WX    TMP DP  RH WIND       PRES   REMARKS
GOODLAND       CLEAR     63  60  90 W12       30.14F
HAYS           CLEAR     70  61  73 SW6       30.05R
HILL CITY      CLEAR     67  62  84 W3        30.06S
RUSSELL        CLEAR     68  64  87 SW7       30.03R
$$

KSZ061>065-074>080-084>089-141100-
SOUTHWEST KANSAS

CITY           SKY/WX    TMP DP  RH WIND       PRES   REMARKS
DODGE CITY     MOCLDY    68  61  78 W5        30.09S
ELKHART          N/A     69  63  81 W3          N/A
GARDEN CITY    MOCLDY    67  63  87 NE3       30.11S
GREAT BEND     MOCLDY    68  63  83 SW6       30.03S
LIBERAL        MOCLDY    70  61  73 N6        30.13R
$$

KSZ066>073-081>083-090>101-141100-
SOUTHEAST KANSAS

CITY           SKY/WX    TMP DP  RH WIND       PRES   REMARKS
CHANUTE        CLEAR     68  66  93 CALM      29.97S
COFFEYVILLE    MOCLDY    72  70  93 CALM      29.96F
HUTCHINSON     MOCLDY    69  65  86 W7        30.02R
MEDICINE LODGE   N/A     72  68  87 CALM      30.03S
NEWTON         PTCLDY    70  63  78 CALM      30.04R
PARSONS        CLEAR     69  66  90 CALM      29.97F
WICHITA INTL   PTCLDY    70  67  90 SW5       30.00S
WICHITA JABRA  PTCLDY    72  66  81 SW3       30.00R
WINFIELD       PTCLDY    72  69  90 CALM      30.00S
$$

KSZ007>012-019>026-033>040-048>060-102>105-141100-
NORTHEAST KANSAS

CITY           SKY/WX    TMP DP  RH WIND       PRES   REMARKS
CONCORDIA      MOCLDY    66  61  84 CALM      30.01R
EMPORIA        CLEAR     64  63  96 SW5       29.98S
LAWRENCE       PTCLDY    65  64  97 NW3       29.96S
MANHATTAN      CLEAR     66  64  93 CALM      29.99R
OLATHE IND     CLEAR     67  65  93 CALM      29.97S
OLATHE EXE     CLEAR     68  66  93 CALM      29.96R
SALINA         CLEAR     69  63  81 CALM      30.01R
TOPEKA BILLARD FOG       69  68  96 CALM      29.97R VSB 1/4
TOPEKA FORBES  CLEAR     67  65  93 CALM      29.97S
$$


USA.gov is the U.S. government's official web portal to all federal, state and local government web resources and services.